Flag for U.S.A. Weather past 2 weeks in Virginia Beach, Virginia, U.S.A.

Now
58 °F

Passing clouds.


Feels Like: 58 °F
Forecast: 57 / 80 °F
Wind: 3 mph from Southeast

Location: Virginia Beach - Oceana

Current Time: May 24, 2015 at 12:19:43 AM

Latest Report: May 23, 2015 at 11:56 PM


Visibility: 10 mi

Pressure: 30.42 "Hg

Humidity: 72%

Dew point: 49 °F

Location of Virginia BeachLocation

Historic Weather in Virginia Beach — Graph

°F

Virginia Beach temperature yesterday

Maximum temperature yesterday: 69 °F (at 12:56 PM)
Minimum temperature yesterday: 53 °F (at 5:56 AM)
Average temperature yesterday: 63 °F

Past Weeks' High & Low Weather Summary

 TemperatureHumidityPressure
High90 °F (May 12, 2:56 PM)97% (May 9, 9:03 AM)30.46 "Hg (May 9, 9:03 AM)
Low50 °F (May 15, 3:56 AM)27% (May 22, 2:56 PM)29.77 "Hg (May 21, 4:56 PM)
Average71 °F69%30.13 "Hg
* Reported May 8 10:56 PM — May 23 10:56 PM, Virginia Beach, Weather by CustomWeather, © 2015

Note: Actual official high and low records may vary slightly from our data, if they occured in-between our weather recording intervals... More about our weather records

Advertising

Virginia Beach weather history for previous 24 hours

 ConditionsComfort  
Time TempWeatherWind HumidityBarometerVisibility
10:56 PM
Sat, May 23
58 °FPassing clouds.3 mph67%30.42 "Hg10 mi
9:56 PM59 °FClear.5 mph62%30.42 "Hg10 mi
8:56 PM61 °FPassing clouds.5 mph60%30.40 "Hg10 mi
7:56 PM61 °FPassing clouds.6 mph60%30.41 "Hg10 mi
6:56 PM64 °FPassing clouds.8 mph56%30.40 "Hg10 mi
5:56 PM66 °FScattered clouds.8 mph52%30.41 "Hg10 mi
4:56 PM67 °FScattered clouds.10 mph49%30.42 "Hg10 mi
3:56 PM69 °FScattered clouds.9 mph45%30.42 "Hg10 mi
2:56 PM69 °FScattered clouds.7 mph44%30.44 "Hg10 mi
1:56 PM68 °FScattered clouds.6 mph44%30.45 "Hg10 mi
12:56 PM69 °FPassing clouds.8 mph41%30.46 "Hg10 mi
11:56 AM68 °FPassing clouds.9 mph40%30.46 "Hg10 mi
10:56 AM68 °FPassing clouds.12 mph38%30.45 "Hg10 mi
9:56 AM68 °FPassing clouds.12 mph39%30.44 "Hg10 mi
8:56 AM68 °FPassing clouds.13 mph40%30.42 "Hg10 mi
7:56 AM66 °FPassing clouds.14 mph47%30.39 "Hg10 mi
6:56 AM57 °FPassing clouds.No wind78%30.37 "Hg10 mi
5:56 AM53 °FPassing clouds.No wind77%30.34 "Hg10 mi
4:56 AM55 °FClear.5 mph74%30.30 "Hg10 mi
3:56 AM57 °FClear.7 mph69%30.27 "Hg10 mi
2:56 AM58 °FClear.6 mph67%30.25 "Hg10 mi
1:56 AM59 °FClear.7 mph64%30.25 "Hg10 mi
12:56 AM60 °FClear.6 mph65%30.25 "Hg10 mi
Weather by CustomWeather, © 2015

See weather overviewHow to use our weather pages